Location: Wald
(31.7579°N, 86.6655°W)
Time: 11:14:09
(UTC+00:00)

Cosmos 1743 - Pass Details

Date: 14 July 2020
Orbit: 511 x 526 km, 82.6° (Epoch: 08 August)

Event Time Altitude Azimuth Distance (km) Brightness Sun altitude
Exits shadow 09:22:56 21° 283° (WNW) 1,185 4.2 -16.7°
Drops below altitude 10° 09:25:50 10° 333° (NNW) 1,743 5.5 -16.2°
Sets 09:28:22 0° 349° (N) 2,636 6.7 -15.8°
